Погода в Больших Шадах

Россия / Республика Башкортостан     55°39′28″N   55°48′46″E
темп.,
°C
ветер,
м/с
пор.,
м/с
влажн.,
%
обл.,
%
осадки,
мм/ч
давл.,
гПа
погр.,
м
9 мая, вс
вс923:00+11ю228177 1.4 101712
02:00+10ссз0182100 0.0 101710
05:00+9юв1183100 0.0 101710
08:00+13юв11696 0.0 1017132
11:00+18ююз11545 0.0 1017698
14:00+21ююз11430 0.0 10171525
17:00+21всв02390 0.0 10172029
20:00+19з225116 0.0 101711
10 мая, пн
пн1023:00+14вюв35628 0.0 101883
02:00+12вюв34663 0.0 101960
05:00+11вюв22696 0.0 102017
08:00+15юв24625 0.0 1021161
11:00+20ююв454642 0.0 1022925
14:00+22ююв3439100 0.0 10222024
17:00+22юз233796 0.0 10221692
20:00+19сз1153100 0.0 102211
11 мая, вт
вт1123:00+16св1155100 0.0 102311
02:00+14всв1159100 0.0 102411
05:00+13ссз1160100 0.0 102511
08:00+16вюв1160100 0.0 102562
11:00+19сз2257100 0.0 1027581
14:00+21сз335472 0.0 10271261
17:00+20ссз54635 0.0 1028918
20:00+16с69755 0.0 1029401
12 мая, ср
ср1223:00+11ссв38900 0.0 1030164
02:00+10ссв37895 0.0 1031126
05:00+8ссв36905 0.0 1031102
08:00+12св467414 0.0 1031261
11:00+16св4553100 0.0 1031685
14:00+20ссв34395 0.0 10301117
17:00+21ссв34384 0.0 10291351
20:00+18с36625 0.0 1029119
13 мая, чт
чт1323:00+14св3567100 0.0 102967
02:00+13всв337099 0.0 103039
05:00+12всв33755 0.0 103038
08:00+16св35675 0.0 1030183
11:00+21всв34516 0.0 1029797
14:00+24св33445 0.0 10281328
17:00+24св234276 0.0 10271483
20:00+21с225931 0.0 102719